Tracking 29892 objects as of 21-Nov-2024
HD Live streaming from Space Station
objects crossing your sky now

POEM

Track POEM now!
10-day predictions


NORAD ID: 52939
Int'l Code: 2022-072E
Perigee: 510.4 km
Apogee: 550.4 km
Inclination: 10.0 °
Period: 95.1 minutes
Semi major axis: 6901 km
RCS: Unknown
Launch date: June 30, 2022
Source: India (IND)
Launch site: SRIHARIKOTA (SRI)
Your satellite tracking list
Your tracking list is empty




NASA's NSSDC Master Catalog

Two Line Element Set (TLE):
1 52939U 22072E   24325.53030638  .00010472  00000-0  50403-3 0  9994
2 52939   9.9521  81.5297 0029010   9.7934 350.2843 15.14242595132102
Source of the keplerian elements: AFSPC